SPAINSAT

Last updated on Sat Aug 15 2026 00:02:57 GMT+0000 (Coordinated Universal Time)

1 28945U 06007A 26226.18780660 -.00000234 00000+0 00000+0 0 9993 2 28945 0.7087 85.5565 0004684 59.0205 215.4365 1.00269796 74792
UTC large
Height (km)
Speed (km/s)
/
Latitude / Longitude
Inclination (degrees)
Orbital Period (minutes)
Azimuth
Elevation
Range (km)
Doppler Factor

Next 0 passes for location: London (51.5072 / 0.1276)

No passes found over London.
SPAINSAT